Wind_Speed
125 125 126 126 126 127 127 127 127 128 128 128 128 128 128 128 129 128 128 128 128 128 129 128 128 128 128 128 128 127 127 127 126 125 125 124 123 122 122 121 120 119 119 118 117 117 116 116 116 115 115 114 114 114 113 112 112 111 111 110 109 109 108 108 107 107 106 106 105 105 103 102 101 100 99 98 96 95 93 92 92 91 91 91 91 90
126 126 127 127 127 128 129 128 128 129 129 129 129 129 129 129 129 129 128 128 128 128 128 128 128 127 127 126 126 125 125 124 124 123 123 122 121 121 120 119 119 118 117 117 116 116 116 115 115 115 114 114 114 113 113 112 112 111 110 110 109 108 108 107 107 106 106 106 105 104 104 103 102 101 100 99 97 96 95 93 92 92 91 91 91 91
128 128 128 128 128 129 130 130 129 129 129 129 129 129 129 129 129 129 128 128 128 127 127 127 126 126 125 124 124 123 123 123 122 122 121 120 120 119 119 118 117 117 116 116 116 115 115 115 115 114 114 114 113 113 113 112 112 111 110 110 109 108 108 107 107 106 106 105 105 104 104 103 103 102 101 100 99 97 96 95 93 92 91 91 91 91
129 130 130 129 129 130 130 130 129 129 129 129 129 129 129 129 129 128 127 127 126 126 125 125 124 124 123 123 122 122 121 121 121 120 120 119 119 118 118 117 117 116 116 116 115 115 115 114 114 114 113 113 113 113 112 112 112 111 111 110 109 108 108 107 107 106 106 105 105 104 104 104 103 102 101 101 100 98 97 96 95 93 92 91 91 91
131 131 130 130 130 130 129 129 129 129 129 129 129 129 128 128 127 127 126 125 125 125 124 124 123 123 123 122 122 121 121 120 120 120 119 119 118 118 117 117 116 116 115 115 115 115 114 114 114 113 113 113 112 112 112 112 111 111 110 110 109 109 108 107 107 106 106 105 105 104 104 104 103 103 102 101 100 99 98 97 96 94 93 92 91 90
131 131 130 130 130 130 129 129 128 128 128 128 128 127 127 126 126 125 125 124 124 124 123 123 123 122 122 122 121 121 121 120 120 119 119 119 118 118 117 117 116 116 115 115 115 114 114 114 113 113 113 112 112 112 111 111 111 111 110 110 110 109 109 108 107 107 106 106 105 105 104 104 103 103 102 101 101 100 99 97 96 95 93 92 91 90
131 130 130 130 129 129 128 128 127 127 127 127 126 125 125 124 124 124 124 124 123 123 123 123 122 122 122 121 121 121 120 120 120 119 119 118 118 117 117 116 116 115 115 115 114 114 114 113 113 113 112 112 112 111 111 111 111 111 110 110 110 110 109 109 108 108 107 106 106 105 104 104 103 103 102 101 100 99 98 97 96 94 93 92 90 89
130 129 128 128 128 128 127 126 125 125 125 125 125 124 124 123 123 123 123 123 122 122 122 122 121 121 121 121 121 120 120 120 119 119 118 118 118 117 117 116 116 115 115 114 114 114 113 113 113 112 112 112 112 111 111 111 111 111 111 111 111 110 110 110 109 109 108 107 106 105 105 104 103 102 101 100 99 98 97 96 95 93 92 91 89 88
128 127 127 126 126 126 125 125 124 123 123 123 123 123 123 123 122 122 122 122 121 121 121 121 121 120 120 120 119 119 119 119 119 118 118 118 117 117 116 116 115 115 114 114 114 114 113 113 113 113 112 112 112 112 111 111 111 111 111 111 111 111 110 110 110 109 108 107 106 105 104 103 102 101 100 99 98 97 96 94 93 92 91 89 88 87
125 125 125 124 124 123 124 124 123 122 121 122 122 122 122 122 121 121 121 121 120 120 119 119 119 119 119 119 118 118 118 118 118 117 117 117 117 116 116 116 115 115 115 114 114 114 114 113 113 113 113 113 112 112 112 112 111 111 111 111 110 110 110 110 109 109 108 107 106 105 104 102 101 99 98 97 96 95 94 93 92 90 89 88 87 85
123 123 123 123 122 122 122 122 122 121 121 120 120 120 120 120 119 120 120 120 119 119 118 118 118 118 118 118 118 117 117 117 117 116 116 116 116 116 116 115 115 115 115 115 114 114 114 114 114 113 113 113 113 113 112 112 112 111 111 111 110 109 109 108 108 107 106 106 105 104 103 101 100 98 97 96 94 93 92 91 90 89 88 87 86 85
122 121 121 121 121 121 120 120 120 120 119 119 119 119 119 118 118 118 118 118 118 118 118 117 117 117 117 117 117 116 116 116 116 115 115 115 115 115 115 115 115 115 115 115 115 115 115 114 114 114 114 114 113 113 113 112 112 111 111 110 109 108 108 107 106 105 104 104 103 102 101 100 99 98 96 95 94 93 92 91 90 88 87 86 85 84
120 120 120 119 119 119 119 119 118 118 118 118 118 118 118 117 117 117 117 117 117 117 117 117 116 116 116 116 115 115 115 115 114 114 114 114 114 114 114 115 115 115 115 115 115 115 115 115 115 114 114 114 114 113 112 112 111 111 110 109 108 107 106 105 104 103 102 102 101 100 100 99 98 97 96 95 94 93 91 90 89 88 87 86 85 84
118 118 118 118 118 117 117 117 117 117 117 116 116 117 116 116 116 116 116 116 116 116 115 115 115 115 115 114 114 114 114 113 113 113 113 114 114 114 114 114 114 115 115 115 115 115 115 115 115 114 114 113 113 112 111 111 110 109 109 108 107 106 105 105 104 103 102 101 100 99 99 98 98 97 96 96 95 94 92 91 90 89 88 87 85 84
116 116 116 116 116 116 116 116 116 116 116 115 115 115 115 115 115 115 115 115 115 114 114 114 114 114 114 113 113 113 112 112 112 113 113 113 113 113 113 114 114 114 114 115 115 115 115 114 114 113 113 112 112 111 110 109 109 108 107 107 106 106 105 104 104 103 102 101 100 99 99 98 98 97 97 96 96 95 94 93 91 90 89 87 86 85
114 114 114 115 115 115 114 114 114 115 115 114 114 114 114 115 114 114 114 114 114 113 113 113 113 113 113 112 112 112 111 111 111 112 112 113 113 113 113 113 113 113 114 114 114 114 113 113 112 112 112 111 110 110 109 108 108 107 107 106 106 105 105 105 104 104 103 102 102 101 100 99 98 98 97 97 96 96 95 94 93 92 91 89 88 86
113 113 113 113 113 113 113 113 113 113 113 113 113 113 113 113 113 113 112 112 112 112 111 111 111 112 112 112 112 111 111 111 111 111 112 112 113 113 112 112 112 112 112 112 112 112 111 111 111 110 110 110 110 109 109 108 108 107 107 106 106 106 106 105 105 105 105 104 104 103 102 101 100 100 99 98 98 97 97 96 95 94 93 92 90 89
112 112 112 112 112 112 112 112 112 112 112 112 112 112 112 111 111 111 111 111 110 110 110 110 110 110 111 112 112 112 111 110 111 111 111 111 111 112 111 110 110 110 110 110 110 110 110 110 110 109 109 109 109 109 109 109 108 108 108 108 107 107 107 107 107 107 106 106 106 105 105 104 103 102 102 101 100 99 98 98 97 97 96 95 93 92
111 111 111 111 111 111 111 111 111 111 111 110 110 110 110 110 109 109 109 109 109 109 109 109 109 110 110 111 111 111 110 110 110 109 109 109 110 110 109 109 108 109 109 109 109 109 109 109 109 109 110 110 110 110 110 110 110 110 109 109 109 109 109 109 109 109 109 109 108 108 108 107 107 106 105 104 103 102 101 100 99 99 98 97 96 95
110 110 110 110 110 110 110 110 109 109 109 108 108 108 108 108 108 108 108 107 108 108 108 108 109 109 109 110 110 110 109 109 108 107 107 107 107 107 107 107 107 107 108 108 109 109 109 110 110 111 111 111 112 112 112 112 112 112 112 112 112 112 112 111 111 111 111 111 111 111 111 110 110 109 109 108 107 106 104 103 102 101 100 100 99 98
109 109 108 108 108 108 108 108 107 107 106 106 106 106 106 106 106 106 106 107 107 107 107 107 108 108 108 108 108 108 108 107 106 105 105 105 105 106 106 106 106 107 108 109 109 110 110 111 112 112 113 113 114 114 114 114 114 114 114 114 114 114 114 114 114 114 114 113 113 113 113 113 113 112 112 111 110 109 108 107 106 104 103 102 101 100
107 107 107 106 106 106 106 106 105 105 104 104 104 104 105 105 105 105 105 106 106 106 106 106 106 106 106 106 106 106 106 105 104 104 104 104 104 105 106 106 106 107 109 110 111 111 112 113 114 115 115 116 116 116 116 116 116 116 116 116 116 116 116 116 116 116 116 116 115 115 115 115 115 115 115 114 114 113 112 111 109 108 107 105 104 103
105 105 105 104 104 103 103 103 103 103 102 102 102 103 103 103 103 104 104 104 104 104 104 104 104 104 104 104 104 105 104 104 103 103 103 103 104 106 106 107 108 109 110 111 112 113 114 115 116 117 118 118 118 119 119 118 118 118 118 118 118 117 118 117 118 118 117 117 117 117 117 117 117 117 117 116 116 116 115 114 113 112 110 109 107 106
102 102 102 101 101 101 101 101 101 101 101 101 101 101 101 102 102 102 102 102 102 101 102 102 102 102 102 103 103 103 104 104 103 103 103 104 105 107 107 108 109 111 112 113 114 115 116 117 118 119 120 120 121 121 121 121 120 120 120 119 119 119 119 119 119 119 119 118 118 118 118 118 118 118 118 118 118 117 117 117 116 115 113 112 110 109
99 99 99 99 99 99 99 99 99 99 99 99 100 100 100 100 100 99 99 99 99 99 99 99 99 100 101 102 103 104 104 104 104 104 105 106 107 108 109 110 111 113 114 115 116 117 118 120 121 121 122 122 123 123 123 122 122 122 121 121 120 120 119 119 119 119 119 119 118 118 118 118 118 118 118 118 118 118 118 118 117 117 116 115 113 111
97 96 96 96 97 97 97 97 97 97 97 97 97 97 97 97 97 97 97 97 97 97 97 98 98 100 101 102 103 104 105 106 106 106 106 107 109 110 111 112 113 114 116 117 118 119 120 122 123 123 124 124 124 124 124 123 123 122 122 121 120 120 119 119 118 118 118 117 117 117 117 117 117 117 117 117 117 118 118 118 118 117 117 116 115 113
94 94 94 94 95 95 95 95 95 95 95 95 95 95 94 94 94 94 95 95 95 96 96 97 99 100 101 102 104 105 107 107 108 108 108 109 110 112 114 114 115 116 117 119 120 120 121 122 123 124 124 124 124 123 123 122 122 121 120 119 118 118 117 116 116 115 115 114 114 114 114 114 114 114 114 114 115 115 116 116 116 117 116 116 115 115
92 92 93 93 93 93 93 93 93 93 93 92 92 92 92 92 92 93 94 94 95 95 96 98 99 101 102 104 105 107 108 109 110 110 110 110 112 114 115 116 117 117 118 119 120 121 121 122 122 123 122 122 122 121 120 119 118 117 116 116 115 114 113 112 112 111 110 110 110 109 109 109 109 110 110 111 111 112 112 113 114 114 114 115 115 114
90 91 91 91 91 91 91 90 90 90 90 90 90 90 90 90 91 92 93 94 95 96 98 99 100 102 103 105 107 108 110 111 111 111 111 112 114 115 116 117 117 118 118 119 119 119 120 120 120 119 119 118 117 117 116 115 114 113 112 111 110 109 109 108 107 107 106 105 105 105 105 105 105 105 105 106 107 107 108 109 110 110 111 112 112 112
88 88 88 88 88 88 88 88 88 88 88 88 88 89 89 90 91 92 93 94 96 97 99 100 102 103 105 106 108 110 111 112 112 112 112 113 115 116 116 117 117 117 117 116 116 116 116 116 115 115 114 113 113 112 111 110 109 108 107 107 106 105 104 104 103 102 102 101 101 100 100 100 100 100 101 101 102 103 103 104 105 106 107 108 108 109
86 86 86 86 86 86 85 86 86 86 86 87 87 88 89 90 91 92 94 96 97 98 100 102 103 105 106 107 109 111 112 113 113 113 113 114 115 115 116 116 115 115 114 113 112 112 112 111 111 110 109 108 108 107 107 106 105 104 103 103 102 101 101 100 99 99 98 98 97 97 97 96 96 96 97 97 98 98 99 100 101 101 102 103 104 105
84 84 84 84 84 84 84 84 84 85 85 86 87 88 89 91 92 94 95 97 98 100 101 103 104 106 107 108 110 111 113 113 113 113 113 113 113 114 113 113 112 111 110 109 108 107 107 107 106 106 105 105 104 104 103 102 101 101 100 100 99 98 98 97 96 96 95 95 94 94 94 93 93 93 93 94 94 95 95 96 97 97 98 99 100 101
82 82 82 82 82 82 83 83 83 84 85 86 88 89 91 92 94 95 97 98 100 101 103 104 106 107 108 109 110 111 112 113 112 112 111 111 111 111 110 109 108 108 107 105 104 103 103 103 103 102 102 102 101 101 100 99 99 98 97 97 96 96 95 94 93 93 92 92 92 91 91 91 90 90 90 91 91 91 92 93 93 94 94 95 96 97
80 81 81 81 81 82 82 83 84 85 86 88 89 91 92 94 96 97 98 100 101 102 104 105 106 108 109 110 110 111 111 111 110 110 109 108 108 107 106 106 105 104 103 102 102 101 100 99 99 99 99 99 99 98 97 97 96 95 94 94 93 92 92 91 90 90 89 89 89 88 88 88 87 87 87 88 88 88 89 89 90 91 91 92 93 93
79 80 80 80 81 81 82 83 84 86 87 89 91 92 94 95 97 98 100 101 102 104 105 106 107 108 109 109 110 110 110 109 108 107 106 105 105 104 103 103 102 101 100 100 99 99 98 97 97 96 96 96 96 95 94 93 93 92 91 90 90 89 88 88 87 86 86 85 85 85 85 84 84 84 84 84 85 85 86 87 87 88 89 89 90 90
79 79 80 80 81 82 83 84 86 87 89 90 92 93 95 97 98 100 101 102 104 105 106 107 107 108 108 108 108 108 108 107 106 104 103 102 102 101 101 100 100 99 98 98 97 97 96 95 95 94 93 93 92 92 91 90 89 88 88 87 86 86 85 84 84 83 83 82 82 81 81 81 81 81 81 81 82 82 83 84 84 85 86 87 87 88
79 79 80 80 82 83 84 86 87 89 90 92 93 95 96 98 99 101 102 103 105 106 107 107 108 107 107 106 106 105 105 104 103 102 101 100 100 99 99 98 98 97 96 96 95 94 94 93 92 91 90 89 88 88 87 86 85 85 84 83 83 82 82 81 80 80 79 79 78 78 78 78 77 78 78 78 79 79 80 81 82 83 83 84 85 85
78 79 80 81 82 84 86 87 89 90 91 93 94 96 97 99 100 102 103 104 106 106 107 107 107 107 106 105 104 103 102 101 100 100 99 98 97 97 97 96 96 95 94 93 93 92 91 90 89 88 87 86 85 84 83 83 82 81 81 80 80 79 78 78 77 76 76 75 75 75 75 74 74 74 74 75 75 76 77 78 79 80 80 81 82 83
79 80 81 82 84 85 87 88 90 91 93 94 96 97 99 100 101 103 104 105 106 107 107 107 107 106 104 103 101 100 99 98 98 97 96 96 95 95 95 94 94 93 92 90 89 88 87 86 85 84 83 82 81 81 80 79 79 78 77 77 77 76 75 75 74 73 73 72 72 72 71 71 71 71 71 72 72 73 74 75 76 76 78 78 79 80
79 80 82 83 85 86 88 89 91 92 94 95 97 98 100 101 103 104 105 106 106 107 107 106 105 104 102 100 99 98 97 96 95 95 94 94 93 93 92 91 91 90 89 87 86 85 84 83 82 81 80 79 78 78 77 76 76 75 74 74 74 73 73 72 71 70 70 69 69 69 69 68 68 68 68 69 69 70 70 71 72 73 74 75 76 77
80 81 83 84 85 87 88 90 92 93 95 96 97 99 100 102 104 105 106 106 107 106 105 104 103 101 99 97 96 95 94 93 93 93 92 92 91 90 89 88 87 86 86 85 83 82 81 80 79 78 77 76 75 75 74 74 73 73 72 72 71 71 70 69 69 68 67 67 66 66 66 66 65 65 65 66 66 67 67 68 69 70 71 72 73 74
81 82 83 85 86 88 89 91 92 94 95 97 98 100 101 103 104 105 106 106 106 105 104 102 100 99 97 95 94 92 91 91 91 90 90 89 88 87 86 85 84 83 82 82 81 79 78 77 76 75 74 73 73 72 72 71 71 70 70 69 69 68 68 67 66 65 64 64 63 63 63 63 63 63 63 63 63 64 64 65 66 67 68 69 70 71
82 83 84 86 87 89 90 91 93 94 96 97 99 100 102 103 104 105 106 105 104 103 101 99 98 96 95 94 92 91 90 89 88 88 87 86 85 84 83 82 81 80 80 79 78 77 76 75 74 73 72 71 70 70 69 69 69 68 67 67 66 66 65 64 64 63 62 61 61 61 60 60 60 60 60 60 61 61 62 62 63 64 65 66 67 68
82 84 85 86 88 89 91 92 93 95 96 98 99 101 102 103 104 104 104 103 102 100 98 97 95 94 93 92 90 89 88 87 86 85 84 83 82 81 80 79 79 78 77 76 75 75 74 73 72 70 69 68 68 67 67 66 66 66 65 65 64 63 62 62 61 60 60 59 59 58 58 58 57 57 58 58 58 58 59 59 60 61 62 63 64 66
83 85 86 87 89 90 91 93 94 95 97 98 99 101 102 103 103 102 101 100 99 97 95 94 93 92 90 90 88 87 86 85 84 82 81 80 79 78 77 77 76 75 74 74 73 72 71 70 69 68 67 66 65 65 64 64 63 63 63 62 62 61 60 59 58 58 57 56 56 56 56 55 55 55 55 55 55 56 56 56 57 58 59 60 62 63
84 85 87 88 89 90 92 93 94 96 97 98 100 101 101 101 101 100 98 97 95 94 93 91 90 89 88 87 86 85 84 83 81 80 78 77 76 75 75 74 73 73 72 71 70 69 69 68 67 66 64 63 63 62 62 61 61 60 60 60 59 59 58 57 56 55 54 54 54 54 53 53 53 53 53 53 53 53 53 54 54 55 56 58 59 60
84 86 87 88 89 91 92 93 95 96 97 99 99 100 100 99 98 97 95 93 92 91 90 89 88 87 86 85 83 82 81 80 79 78 76 75 74 73 72 71 70 70 69 69 68 67 66 65 64 63 62 61 60 59 59 58 58 58 58 58 58 57 56 54 53 52 51 51 51 51 51 51 50 50 50 50 50 51 51 51 52 53 54 55 56 58
84 86 87 88 89 91 92 93 95 96 97 98 99 99 98 96 95 93 92 90 89 88 88 87 86 85 84 82 80 79 78 78 77 75 74 73 71 70 69 69 68 67 67 66 65 64 64 63 62 60 59 58 57 56 56 56 55 55 56 56 56 55 54 53 51 50 49 49 49 49 49 48 48 48 48 48 48 48 48 49 49 50 51 52 54 55
84 86 87 88 90 91 92 93 95 96 97 98 97 96 95 93 92 90 89 88 87 86 86 85 84 83 82 80 78 76 75 75 74 73 72 70 69 68 67 66 65 65 64 63 62 62 61 60 59 58 57 55 54 53 53 53 52 53 53 53 53 53 52 51 50 49 48 47 47 47 47 46 46 46 45 45 46 46 46 46 47 47 48 50 51 53
84 86 87 88 89 91 92 94 95 96 96 96 95 94 92 90 89 87 86 85 84 84 83 83 82 81 79 77 75 74 72 72 71 70 70 68 67 66 65 64 63 62 62 61 60 59 59 58 57 56 54 53 51 50 50 49 49 50 50 51 51 50 50 49 48 47 46 46 46 45 45 45 44 44 44 44 44 44 44 44 44 45 46 47 49 50
84 86 87 88 89 91 92 93 94 95 94 93 92 90 89 87 86 85 84 83 82 82 81 80 79 78 77 75 73 71 70 69 68 68 67 66 65 64 63 62 61 60 59 59 58 57 57 56 55 54 52 50 49 47 47 46 46 47 47 48 48 48 47 46 45 44 44 44 44 43 43 43 43 43 42 42 42 42 42 42 42 43 44 45 46 48
Wind_Direction
273 274 275 276 276 277 277 278 279 279 280 281 281 282 282 283 283 284 284 285 285 285 285 286 286 286 286 286 286 286 286 286 286 287 287 287 287 286 286 286 286 286 286 286 287 287 287 287 287 287 287 287 287 287 287 287 287 286 286 286 286 286 286 286 286 286 286 286 286 286 285 285 285 285 284 284 283 283 283 282 282 281 281 281 280 280
274 274 275 276 276 277 277 278 279 280 280 281 281 282 283 283 283 284 284 284 285 285 285 285 285 285 285 286 286 286 286 286 286 286 286 286 286 286 286 286 286 286 286 286 286 286 286 286 286 286 286 286 286 286 287 286 286 286 286 286 286 286 286 286 285 285 285 285 285 285 285 285 285 285 284 284 283 283 282 282 281 281 280 280 279 279
274 274 275 276 277 277 278 279 279 280 280 281 281 282 282 283 283 283 284 284 284 284 284 285 285 285 285 285 285 285 285 285 285 285 286 286 286 286 286 286 286 286 286 286 286 286 286 286 286 286 286 286 286 286 286 286 286 286 286 286 286 286 285 285 285 285 285 285 285 285 285 285 284 284 284 284 283 283 282 282 281 280 280 279 279 278
274 275 275 276 277 277 278 279 279 280 280 281 281 282 282 282 283 283 283 284 284 284 284 285 285 285 285 285 285 285 285 285 285 285 285 285 285 285 286 286 286 286 286 286 286 286 286 286 286 286 286 286 286 286 286 286 286 286 286 286 286 285 285 285 285 285 284 284 284 284 284 284 284 284 284 283 283 283 282 282 281 280 279 279 278 277
274 275 276 276 277 277 278 279 279 280 280 281 281 281 282 282 283 283 283 284 284 284 285 285 285 285 285 285 285 285 285 286 286 286 286 286 286 286 286 286 286 286 286 286 286 286 286 286 286 286 286 286 286 286 286 286 286 286 286 286 285 285 285 285 285 284 284 284 284 284 284 284 283 283 283 283 283 282 282 281 281 280 279 278 278 277
274 275 276 276 277 277 278 279 279 280 280 280 281 281 282 282 283 283 283 284 284 285 285 285 285 285 285 286 286 286 286 286 286 286 286 286 286 286 286 286 286 286 286 286 286 286 286 286 286 286 286 286 286 286 286 286 286 286 285 285 285 285 285 285 284 284 284 284 284 283 283 283 283 283 283 282 282 282 281 281 280 280 279 278 277 277
275 275 276 277 277 278 278 278 279 279 280 280 281 281 282 282 283 283 284 284 284 285 285 285 285 286 286 286 286 286 286 286 286 286 286 286 286 286 286 286 286 286 286 286 286 286 286 286 286 286 286 286 286 286 286 286 285 285 285 285 285 285 285 285 284 284 284 284 284 283 283 283 283 283 282 282 282 281 281 281 280 280 279 278 277 276
275 276 276 277 277 278 278 279 279 280 280 281 281 282 282 283 283 284 284 284 284 285 285 285 285 285 286 286 286 286 286 286 286 286 286 286 286 286 286 286 286 286 286 286 286 286 286 286 286 286 286 286 286 286 285 285 285 285 285 285 285 285 285 285 284 284 284 284 283 283 283 283 282 282 282 282 281 281 281 280 280 279 278 278 277 276
275 276 276 277 277 278 279 279 280 280 281 281 282 282 283 283 283 284 284 284 284 285 285 285 285 285 285 286 286 286 286 286 286 286 286 286 286 286 286 286 286 286 286 286 286 286 286 286 286 286 286 286 286 285 285 285 285 285 285 285 285 285 285 285 284 284 284 284 283 283 283 282 282 282 281 281 281 280 280 280 279 279 278 277 277 276
275 276 277 277 278 278 279 280 280 281 281 281 282 282 282 283 283 284 284 284 284 285 285 285 285 285 285 285 286 286 286 286 286 286 286 286 286 287 287 287 287 287 287 287 286 286 286 286 286 286 286 286 285 285 285 285 285 285 284 284 284 284 284 284 284 284 284 284 283 283 283 282 282 281 281 281 280 280 280 279 279 278 278 277 276 276
276 276 277 278 278 279 279 280 280 281 281 282 282 282 283 283 283 283 284 284 284 285 285 285 285 285 285 285 285 286 286 286 286 286 286 286 287 287 287 287 287 287 287 287 287 286 286 286 286 286 286 285 285 285 285 285 285 284 284 284 284 284 283 283 283 283 283 283 283 283 282 282 282 281 281 280 280 279 279 278 278 278 277 276 276 275
276 277 277 278 278 279 279 280 280 281 281 282 282 282 283 283 283 284 284 284 284 285 285 285 285 285 285 285 285 286 286 286 286 286 286 286 286 286 287 287 287 287 287 287 286 286 286 286 286 286 286 285 285 285 285 285 284 284 284 284 283 283 283 283 282 282 282 282 282 282 282 281 281 281 280 280 279 279 278 278 277 277 276 276 275 275
276 277 277 278 278 279 279 280 281 281 281 282 282 282 283 283 284 284 284 284 284 285 285 285 285 285 285 285 285 285 286 286 286 286 286 286 286 286 286 286 286 286 286 286 286 286 286 286 286 286 285 285 285 285 285 284 284 284 284 283 283 283 282 282 282 281 281 281 281 281 280 280 280 280 280 279 278 278 277 277 276 276 275 275 274 274
276 277 277 278 278 279 280 280 281 281 282 282 283 283 283 284 284 284 284 284 284 285 285 285 285 285 285 285 285 285 285 286 286 286 286 286 286 286 286 286 286 286 286 286 286 286 286 286 285 285 285 285 284 284 284 284 284 283 283 283 283 282 282 282 281 281 280 280 280 279 279 279 279 279 279 278 278 277 277 276 275 275 274 274 273 273
276 277 278 278 279 279 280 281 281 282 282 283 283 283 284 284 284 284 284 284 285 285 285 285 285 285 285 285 285 285 285 285 286 286 286 286 286 286 286 286 286 286 286 285 285 285 285 285 285 285 285 284 284 284 283 283 283 283 282 282 282 282 282 281 281 281 280 280 279 279 278 278 278 277 277 277 277 277 276 276 275 274 273 273 272 272
277 277 278 279 279 280 281 281 281 282 282 283 283 283 284 284 284 284 284 284 285 285 285 285 285 285 285 285 285 285 285 285 285 286 286 286 286 286 286 285 285 285 285 285 285 285 285 285 284 284 284 284 284 283 283 283 283 282 282 282 282 281 281 281 281 280 280 280 279 279 278 277 277 277 276 276 276 276 275 275 275 274 273 272 272 271
277 278 279 279 280 280 281 281 282 282 283 283 283 283 284 284 284 284 284 284 285 285 285 285 285 285 285 285 285 285 285 285 286 286 286 285 285 285 285 285 285 285 285 285 284 284 284 284 284 284 284 283 283 283 283 283 282 282 282 282 281 281 281 281 281 280 280 280 279 279 278 277 277 276 276 275 275 275 274 274 274 274 273 272 271 270
278 279 279 280 280 281 281 282 282 283 283 283 283 284 284 284 284 284 284 285 285 285 285 285 285 285 285 286 286 286 286 286 286 286 286 285 285 285 285 285 285 285 285 284 284 284 284 284 284 284 283 283 283 283 283 283 282 282 282 282 281 281 281 281 280 280 280 279 279 279 278 278 277 276 276 275 274 274 273 273 273 273 272 272 271 270
279 279 280 280 281 281 282 282 282 283 283 283 284 284 284 284 284 284 285 285 285 285 285 285 285 285 285 285 286 286 286 286 286 286 286 285 285 285 285 285 285 285 285 285 285 284 284 284 284 284 284 283 283 283 283 283 282 282 282 282 281 281 281 280 280 280 279 279 279 278 278 278 277 277 276 275 274 273 273 272 272 271 271 271 270 270
279 280 280 281 281 282 282 282 283 283 283 284 284 284 284 284 285 285 285 285 285 285 285 285 285 286 286 286 286 286 286 286 286 286 286 285 285 286 286 286 285 285 285 285 285 285 285 285 284 284 284 284 283 283 283 282 282 282 282 281 281 281 280 280 280 279 279 279 278 278 278 277 277 276 276 275 274 274 273 272 271 270 270 269 269 269
280 280 281 281 282 282 282 283 283 283 284 284 284 284 284 285 285 285 285 285 285 286 286 286 286 286 286 286 286 286 286 286 286 286 286 286 286 286 286 286 286 286 285 285 285 285 285 285 284 284 284 283 283 283 282 282 282 281 281 281 280 280 280 279 279 279 278 278 278 277 277 277 276 276 275 275 274 274 273 272 271 270 269 268 268 268
280 281 281 282 282 282 283 283 283 284 284 284 284 284 285 285 285 285 286 286 286 286 286 286 286 286 286 286 286 286 286 286 286 286 286 286 286 286 286 286 286 286 285 285 285 285 285 284 284 284 283 283 283 282 282 282 281 281 281 280 280 280 279 279 278 278 278 277 277 276 276 276 275 275 275 274 274 273 273 272 271 270 269 268 267 266
280 281 282 282 282 283 283 283 283 284 284 284 284 285 285 285 286 286 286 286 287 287 287 287 287 287 287 286 286 286 286 286 286 286 286 286 286 286 286 286 286 286 285 285 285 285 285 285 284 284 284 283 283 283 282 282 282 281 281 280 280 279 279 279 278 278 277 277 276 276 275 275 274 274 274 273 273 273 272 272 271 270 269 268 267 266
281 281 282 282 282 283 283 283 284 284 284 285 285 285 286 286 286 286 287 287 287 287 287 287 287 287 287 287 287 287 287 287 287 287 286 286 286 286 286 287 286 286 286 286 286 286 286 285 285 285 284 284 284 283 283 282 282 282 281 281 280 280 279 278 278 277 277 276 276 275 275 274 273 273 273 272 272 272 271 271 271 270 269 269 268 266
281 282 282 282 283 283 283 284 284 284 285 285 286 286 286 286 287 287 287 287 287 287 287 287 287 287 287 287 287 287 287 287 287 287 287 287 287 288 288 288 288 287 287 287 287 287 286 286 285 285 285 284 284 284 283 283 282 282 282 281 280 280 279 278 278 277 276 276 275 275 274 273 273 272 272 271 271 271 270 270 270 269 269 268 268 267
282 282 282 283 283 283 284 284 285 285 285 286 286 286 287 287 287 287 287 287 287 287 287 287 287 287 287 287 287 288 288 288 288 288 289 289 289 289 289 288 288 288 288 287 287 287 286 286 285 285 284 284 284 283 283 283 282 282 282 281 280 280 279 278 278 277 276 275 275 274 273 273 272 271 271 270 270 269 269 269 268 268 268 268 267 267
282 282 283 283 284 284 285 285 285 286 286 286 287 287 287 287 287 287 287 287 287 287 287 287 288 288 288 288 288 289 289 289 289 290 290 290 290 290 289 289 288 288 287 287 287 286 286 285 285 284 284 284 283 283 283 282 282 282 281 281 280 279 279 278 277 276 276 275 274 273 273 272 271 271 270 269 269 268 268 267 267 267 266 266 266 266
283 283 283 284 284 285 285 286 286 286 286 287 287 287 287 287 287 287 287 287 288 288 288 288 289 289 289 290 290 290 290 290 290 291 291 290 290 289 289 289 288 287 287 286 286 286 285 285 284 284 284 284 283 283 283 282 282 281 281 280 280 279 278 278 277 276 276 275 274 273 272 271 271 270 269 268 268 267 266 266 266 265 265 265 264 264
283 284 284 285 285 286 286 286 286 286 286 287 287 287 287 287 287 288 288 288 289 289 289 290 290 290 290 291 291 291 291 291 291 291 291 290 290 289 289 288 288 287 287 286 286 286 285 285 284 284 284 284 283 283 283 282 282 282 281 280 280 279 279 278 277 276 276 275 274 273 272 271 270 270 269 268 267 266 266 265 264 264 263 263 263 263
284 285 285 285 285 286 286 286 286 286 286 287 287 287 288 288 288 289 289 289 290 290 290 291 291 291 291 291 291 291 291 291 291 291 291 291 290 289 289 289 288 287 287 287 286 286 286 285 285 285 284 284 284 283 283 283 282 282 281 281 280 280 279 278 278 277 276 275 274 274 273 272 271 270 269 268 267 266 265 264 264 263 262 262 261 261
285 285 285 285 285 286 286 286 286 286 287 287 288 288 289 289 289 290 290 291 291 291 291 292 292 292 292 292 292 292 292 291 291 291 291 291 290 290 289 289 288 288 288 287 287 287 286 286 286 285 285 285 284 284 284 283 283 282 282 281 281 280 280 279 278 277 277 276 275 274 273 272 271 270 269 268 267 266 265 264 263 262 262 261 260 260
285 285 286 286 286 286 286 287 287 288 288 289 289 290 290 291 291 291 291 292 292 292 292 292 292 292 292 292 292 292 292 292 292 292 292 291 291 290 290 290 289 289 289 288 288 288 287 287 287 287 286 286 285 285 284 284 284 283 282 282 281 281 280 279 279 278 277 276 275 274 273 272 271 270 269 268 267 266 265 264 263 262 261 260 260 259
286 286 286 286 287 287 288 288 289 290 290 291 291 292 292 292 292 292 292 292 293 293 293 293 293 293 293 293 293 293 292 293 293 293 292 292 292 291 291 291 290 290 290 290 289 289 288 288 288 287 287 287 286 286 285 285 284 284 283 282 282 281 280 280 279 278 277 276 275 274 273 272 271 270 269 268 267 266 265 264 263 262 261 260 259 259
287 287 287 288 288 289 290 290 291 292 292 292 293 293 293 293 293 293 293 293 293 294 294 294 294 294 294 294 294 294 294 294 294 294 294 293 293 293 292 292 292 291 291 291 290 290 289 289 288 288 288 287 287 286 286 285 285 284 283 283 282 281 280 280 279 278 277 276 275 274 273 272 271 270 269 268 267 266 265 264 263 262 261 260 259 258
288 288 289 290 290 291 292 292 293 293 293 293 293 294 294 294 294 294 294 294 294 295 295 295 295 295 295 295 295 295 295 295 295 295 295 294 294 294 293 293 292 292 292 291 291 291 290 290 289 289 288 288 287 287 286 286 285 284 284 283 282 282 281 280 279 278 277 276 275 274 273 272 271 270 269 268 267 266 265 263 262 261 260 259 258 257
289 290 291 292 292 293 293 294 294 294 294 294 294 294 294 295 295 295 295 295 296 296 296 296 296 296 296 296 297 297 297 297 296 296 296 295 295 295 294 294 293 293 293 292 292 291 291 290 290 289 289 288 288 287 287 286 286 285 284 284 283 282 281 280 279 279 278 277 276 275 274 272 271 270 269 268 266 265 264 263 262 261 260 259 258 257
291 292 293 293 294 294 294 294 294 295 295 295 295 295 296 296 296 296 296 297 297 297 297 297 297 298 298 298 298 298 298 298 297 297 297 296 296 295 295 294 294 294 293 293 292 292 292 291 291 290 289 289 288 288 287 287 286 286 285 284 284 283 282 281 280 279 278 277 276 275 274 272 271 270 269 267 266 265 264 263 262 261 260 259 258 256
292 293 294 294 294 295 295 295 295 295 296 296 296 296 297 297 297 298 298 298 298 299 299 299 299 299 299 299 299 299 299 298 298 298 297 297 296 296 295 295 295 294 294 293 293 293 292 292 291 291 290 290 289 288 288 288 287 286 286 285 284 283 283 282 281 280 279 278 276 275 274 273 271 270 269 267 266 265 264 263 262 261 260 259 258 256
293 294 294 295 295 295 295 296 296 296 297 297 297 298 298 298 299 299 299 300 300 300 300 300 300 300 300 300 300 300 299 299 298 298 298 297 297 296 296 295 295 295 294 294 293 293 293 292 292 291 291 290 290 289 289 288 288 287 287 286 285 284 283 282 281 280 279 278 277 276 274 273 272 270 269 268 266 265 264 262 261 260 259 258 257 256
294 295 295 295 296 296 296 296 297 297 298 298 299 299 299 300 300 301 301 301 301 301 301 301 301 301 301 301 300 300 300 299 299 298 298 297 297 297 296 296 296 295 295 295 294 294 293 293 293 292 292 292 291 291 290 289 289 288 287 287 286 285 284 283 282 281 280 279 278 277 275 274 273 271 269 268 267 265 264 262 261 260 259 258 257 256
295 295 295 296 296 296 297 297 298 298 299 299 300 300 301 301 302 302 302 302 302 302 302 302 302 302 301 301 301 300 300 300 299 299 298 298 298 297 297 297 296 296 296 295 295 295 294 294 294 293 293 293 292 292 291 290 290 289 288 287 287 286 285 284 283 282 281 280 278 277 276 275 273 272 270 268 267 265 264 263 261 260 259 258 257 256
295 295 296 296 297 297 298 298 299 299 300 301 301 302 302 303 303 303 303 303 303 303 303 302 302 302 302 302 301 301 300 300 300 299 299 299 298 298 298 297 297 297 296 296 296 295 295 295 295 294 294 294 293 292 292 291 290 290 289 288 287 286 286 285 284 283 282 280 279 278 276 275 274 272 270 269 267 266 264 263 261 260 259 258 257 256
296 296 297 297 298 298 299 299 300 300 301 302 302 303 303 303 304 304 304 303 303 303 303 303 303 303 302 302 302 302 301 301 300 300 300 299 299 299 298 298 298 298 297 297 297 296 296 296 295 295 295 294 294 293 293 292 291 290 290 289 288 287 286 285 284 283 282 281 280 278 277 276 274 273 271 269 268 266 265 263 262 260 259 258 257 256
297 297 298 298 299 299 300 300 301 302 302 303 303 304 304 304 304 304 304 304 304 303 303 303 303 303 303 303 302 302 302 301 301 301 300 300 300 300 299 299 299 298 298 298 297 297 297 297 296 296 296 295 295 294 293 293 292 291 290 290 289 288 287 286 285 284 283 282 280 279 278 276 275 273 272 270 268 267 265 264 262 261 259 258 257 256
297 298 299 299 300 300 301 302 302 303 303 304 304 304 304 304 304 304 304 304 304 304 304 303 303 303 303 303 303 303 302 302 302 301 301 301 301 300 300 300 299 299 299 298 298 298 298 297 297 297 296 296 295 295 294 293 293 292 291 290 289 288 287 286 285 284 283 282 281 280 278 277 275 274 272 271 269 267 266 264 262 261 260 258 257 256
298 299 300 300 301 301 302 302 303 304 304 304 305 305 305 305 305 304 304 304 304 304 304 304 304 304 304 304 304 303 303 303 303 302 302 302 302 301 301 301 300 300 300 299 299 299 298 298 298 298 297 297 296 296 295 294 294 293 292 291 290 289 288 287 286 285 284 283 282 280 279 277 276 275 273 272 270 268 266 265 263 261 260 258 257 256
299 300 300 301 302 302 303 303 304 304 305 305 305 305 305 305 305 305 305 305 305 305 304 304 304 304 304 304 304 304 304 304 304 303 303 303 302 302 302 301 301 301 300 300 300 299 299 299 298 298 298 298 297 297 296 295 295 294 293 292 291 290 289 288 287 286 285 284 282 281 279 278 277 275 274 272 271 269 267 265 264 262 260 259 257 256
300 301 301 302 303 303 304 304 305 305 306 306 306 306 306 306 305 305 305 305 305 305 305 305 305 305 305 305 305 305 305 305 304 304 304 304 303 303 303 302 302 301 301 301 300 300 300 299 299 299 298 298 298 297 297 296 295 294 293 292 291 291 290 289 288 287 286 285 283 282 281 279 278 276 275 273 271 270 268 266 264 262 261 259 258 256
301 302 302 303 303 304 304 305 306 306 306 306 306 306 306 306 306 306 306 306 306 306 306 306 306 306 306 306 306 306 306 305 305 305 305 305 304 304 303 303 303 302 302 301 301 301 300 300 300 299 299 299 298 298 297 296 295 294 293 292 291 291 291 290 290 289 288 286 285 283 282 281 279 278 276 274 272 270 268 266 264 262 261 259 258 257
302 302 303 304 304 305 305 306 306 307 307 307 307 307 306 306 306 306 306 306 306 306 306 306 306 307 307 307 307 307 307 306 306 306 306 306 305 305 305 304 304 303 302 302 302 301 301 301 300 300 300 299 299 298 298 297 295 294 293 292 291 291 291 291 290 289 288 287 286 285 284 282 281 279 277 275 273 271 268 266 264 262 261 260 258 257
303 303 304 304 305 306 306 307 307 307 307 307 307 307 307 307 307 307 307 307 307 307 307 307 307 307 308 308 308 308 308 308 307 307 307 307 306 306 306 305 305 304 304 303 303 303 302 302 302 301 300 300 299 299 298 297 296 294 293 292 291 291 291 291 290 290 289 287 286 285 284 283 281 280 278 276 274 271 269 267 265 263 261 260 258 257
Height
10567 10565 10564 10564 10564 10562 10559 10558 10558 10558 10556 10553 10552 10551 10551 10548 10546 10544 10544 10543 10542 10541 10539 10538 10537 10536 10534 10533 10532 10531 10529 10527 10525 10523 10521 10520 10518 10517 10515 10514 10512 10511 10509 10507 10506 10504 10503 10501 10500 10499 10498 10496 10495 10494 10493 10492 10491 10490 10489 10489 10488 10487 10486 10485 10484 10483 10482 10481 10481 10480 10480 10480 10481 10482 10483 10484 10486 10487 10489 10490 10491 10491 10491 10490 10490 10489
10561 10559 10558 10558 10557 10556 10553 10551 10551 10551 10550 10548 10545 10544 10544 10542 10540 10538 10536 10536 10535 10534 10533 10531 10529 10528 10526 10525 10524 10522 10521 10518 10516 10514 10513 10511 10509 10508 10506 10505 10503 10502 10500 10499 10497 10496 10494 10493 10491 10490 10489 10488 10486 10484 10483 10482 10481 10481 10480 10479 10479 10478 10477 10476 10476 10474 10473 10473 10472 10471 10471 10471 10471 10472 10473 10474 10476 10478 10479 10480 10481 10482 10483 10482 10482 10481
10554 10553 10552 10551 10551 10550 10548 10544 10544 10544 10544 10541 10539 10538 10536 10535 10533 10531 10529 10529 10528 10526 10524 10523 10522 10520 10518 10516 10515 10513 10512 10509 10508 10505 10504 10502 10501 10499 10498 10496 10494 10493 10491 10490 10488 10487 10485 10484 10483 10481 10479 10478 10477 10476 10474 10473 10472 10471 10470 10469 10469 10468 10468 10467 10466 10466 10465 10464 10463 10463 10463 10462 10462 10463 10463 10464 10466 10467 10468 10469 10471 10473 10473 10474 10474 10473
10547 10547 10545 10544 10544 10544 10542 10539 10538 10537 10536 10535 10533 10531 10529 10528 10526 10524 10523 10521 10520 10518 10516 10514 10513 10512 10509 10508 10506 10504 10503 10501 10498 10496 10494 10493 10491 10489 10488 10487 10485 10484 10483 10481 10479 10478 10476 10475 10473 10472 10471 10469 10468 10466 10465 10464 10463 10461 10460 10459 10459 10458 10458 10458 10457 10456 10456 10455 10454 10454 10454 10453 10453 10453 10454 10454 10455 10456 10458 10459 10461 10462 10463 10464 10464 10465
10540 10540 10539 10538 10538 10537 10536 10534 10533 10531 10530 10528 10526 10524 10523 10521 10519 10517 10516 10514 10513 10511 10508 10506 10504 10503 10501 10498 10496 10494 10493 10491 10489 10487 10485 10483 10481 10480 10478 10477 10476 10474 10473 10471 10470 10469 10468 10466 10464 10463 10461 10460 10459 10457 10456 10454 10453 10452 10451 10449 10449 10448 10448 10448 10447 10447 10446 10446 10446 10445 10445 10444 10444 10444 10444 10444 10445 10446 10447 10448 10449 10451 10453 10454 10455 10456
10533 10533 10533 10532 10531 10529 10528 10527 10526 10524 10523 10521 10519 10517 10516 10514 10513 10510 10508 10506 10504 10503 10500 10498 10496 10494 10491 10489 10486 10484 10483 10481 10479 10477 10475 10473 10471 10470 10469 10468 10466 10465 10463 10462 10461 10459 10458 10456 10455 10454 10452 10451 10449 10448 10446 10445 10444 10442 10441 10440 10439 10438 10438 10437 10437 10437 10436 10436 10436 10436 10436 10435 10435 10435 10435 10434 10435 10436 10436 10438 10438 10439 10441 10443 10444 10446
10526 10526 10526 10526 10524 10522 10521 10519 10518 10517 10516 10514 10512 10509 10508 10507 10505 10503 10501 10498 10496 10494 10492 10489 10487 10485 10483 10481 10478 10475 10473 10471 10469 10467 10465 10463 10461 10460 10459 10458 10456 10455 10454 10452 10451 10449 10448 10446 10445 10444 10443 10441 10440 10439 10438 10436 10434 10433 10431 10430 10429 10428 10427 10427 10426 10426 10426 10426 10426 10426 10426 10426 10426 10426 10426 10425 10426 10426 10426 10427 10428 10429 10431 10432 10433 10434
10520 10519 10518 10518 10517 10515 10513 10511 10510 10510 10509 10508 10504 10502 10500 10498 10496 10494 10493 10491 10488 10486 10484 10482 10479 10476 10474 10472 10470 10467 10464 10462 10460 10458 10456 10454 10452 10451 10449 10448 10446 10445 10444 10443 10441 10439 10438 10436 10435 10434 10433 10432 10431 10429 10428 10426 10425 10424 10422 10421 10419 10418 10417 10416 10416 10416 10416 10416 10416 10416 10416 10416 10416 10416 10416 10416 10416 10416 10416 10417 10418 10419 10420 10421 10423 10424
10514 10513 10510 10509 10509 10508 10506 10503 10501 10501 10503 10501 10498 10494 10492 10491 10488 10486 10484 10483 10481 10478 10476 10474 10471 10468 10465 10463 10461 10459 10456 10453 10451 10449 10447 10444 10443 10441 10439 10438 10436 10435 10434 10432 10431 10429 10428 10426 10425 10424 10423 10422 10421 10419 10418 10417 10415 10414 10413 10411 10410 10409 10408 10406 10406 10405 10404 10404 10405 10406 10406 10406 10406 10406 10406 10406 10406 10407 10407 10408 10408 10409 10411 10412 10413 10414
10507 10506 10504 10501 10500 10500 10500 10497 10494 10492 10493 10493 10491 10487 10484 10484 10481 10478 10475 10473 10471 10470 10468 10466 10463 10460 10457 10454 10453 10451 10449 10445 10442 10440 10438 10436 10434 10431 10429 10428 10426 10425 10423 10422 10421 10419 10418 10416 10415 10414 10413 10411 10410 10409 10408 10406 10406 10404 10403 10402 10401 10399 10398 10397 10396 10395 10394 10394 10394 10394 10395 10396 10396 10397 10397 10398 10398 10398 10398 10398 10399 10400 10401 10402 10403 10404
10499 10498 10497 10496 10493 10492 10492 10491 10488 10485 10484 10484 10482 10479 10477 10476 10475 10473 10469 10464 10462 10461 10459 10457 10454 10452 10449 10446 10443 10441 10440 10438 10434 10431 10429 10428 10426 10423 10420 10418 10417 10415 10414 10412 10410 10409 10408 10406 10405 10403 10402 10401 10399 10398 10397 10396 10395 10394 10393 10393 10391 10390 10389 10388 10388 10386 10386 10385 10384 10384 10384 10385 10386 10387 10388 10388 10388 10389 10389 10389 10390 10391 10392 10393 10394 10396
10493 10491 10490 10489 10487 10485 10484 10483 10481 10479 10478 10476 10474 10471 10468 10466 10466 10465 10463 10458 10454 10452 10451 10448 10445 10443 10441 10438 10435 10433 10431 10429 10426 10424 10421 10419 10417 10414 10412 10410 10408 10406 10404 10402 10400 10398 10397 10396 10394 10393 10391 10390 10389 10388 10386 10386 10384 10384 10383 10382 10381 10381 10380 10379 10378 10378 10377 10376 10376 10376 10375 10375 10376 10376 10377 10378 10379 10380 10381 10381 10381 10383 10383 10384 10386 10387
10486 10486 10484 10482 10480 10478 10476 10474 10473 10471 10469 10468 10467 10464 10460 10458 10457 10456 10454 10450 10446 10444 10443 10440 10436 10433 10431 10430 10428 10424 10422 10420 10418 10416 10413 10411 10408 10406 10404 10402 10399 10396 10394 10393 10390 10388 10386 10385 10384 10382 10381 10380 10379 10377 10376 10375 10374 10373 10372 10371 10371 10370 10370 10369 10369 10369 10368 10368 10368 10368 10367 10366 10366 10367 10367 10368 10369 10370 10371 10372 10373 10374 10374 10376 10377 10378
10480 10479 10478 10475 10473 10471 10469 10468 10466 10464 10461 10460 10458 10456 10453 10450 10448 10447 10444 10441 10438 10436 10434 10432 10428 10424 10421 10420 10419 10416 10414 10412 10409 10408 10405 10402 10399 10397 10396 10394 10390 10387 10386 10384 10381 10377 10375 10375 10374 10371 10369 10369 10368 10367 10366 10365 10364 10363 10362 10361 10361 10360 10359 10359 10359 10359 10359 10359 10359 10359 10359 10358 10358 10358 10358 10358 10359 10360 10361 10363 10364 10365 10366 10367 10368 10369
10473 10472 10470 10468 10466 10464 10463 10461 10459 10456 10454 10452 10450 10448 10445 10442 10439 10438 10436 10433 10429 10426 10425 10423 10419 10416 10413 10411 10409 10408 10406 10404 10401 10399 10396 10393 10389 10388 10387 10386 10382 10378 10376 10374 10371 10367 10364 10364 10364 10361 10359 10358 10358 10356 10356 10355 10354 10353 10353 10351 10351 10350 10349 10349 10349 10349 10349 10349 10349 10350 10350 10350 10350 10350 10349 10349 10350 10351 10351 10353 10354 10356 10358 10359 10360 10361
10466 10465 10463 10461 10458 10456 10455 10453 10451 10449 10446 10444 10442 10440 10437 10434 10431 10428 10426 10424 10421 10418 10416 10414 10411 10407 10403 10401 10399 10399 10398 10396 10393 10390 10388 10385 10380 10377 10377 10377 10374 10369 10365 10364 10362 10358 10355 10354 10353 10351 10349 10348 10346 10346 10345 10344 10344 10343 10343 10342 10341 10341 10340 10339 10339 10339 10338 10339 10339 10339 10340 10341 10341 10341 10341 10341 10341 10342 10342 10343 10344 10346 10348 10349 10351 10352
10459 10458 10456 10454 10451 10449 10447 10446 10444 10442 10439 10436 10434 10431 10429 10426 10423 10420 10418 10415 10413 10410 10408 10405 10403 10399 10394 10391 10388 10388 10389 10388 10384 10381 10379 10376 10372 10368 10366 10368 10364 10359 10355 10354 10352 10349 10346 10345 10343 10341 10339 10338 10336 10335 10334 10334 10333 10333 10333 10332 10331 10331 10330 10329 10329 10329 10328 10328 10328 10329 10329 10330 10331 10331 10332 10333 10333 10333 10333 10334 10334 10336 10337 10339 10341 10343
10452 10451 10449 10447 10444 10442 10440 10438 10436 10434 10431 10429 10426 10423 10420 10418 10414 10412 10409 10406 10404 10402 10399 10396 10394 10391 10387 10383 10378 10376 10377 10379 10376 10372 10368 10366 10363 10358 10356 10357 10354 10350 10346 10343 10341 10339 10336 10335 10333 10331 10329 10328 10326 10325 10324 10323 10323 10322 10322 10321 10321 10321 10320 10319 10319 10319 10318 10318 10318 10318 10318 10318 10319 10320 10321 10322 10323 10324 10324 10325 10326 10326 10327 10328 10330 10332
10444 10443 10442 10440 10437 10434 10433 10430 10428 10426 10423 10421 10418 10415 10412 10408 10406 10403 10401 10398 10396 10393 10391 10388 10384 10381 10378 10375 10371 10368 10367 10368 10367 10363 10359 10356 10353 10349 10346 10346 10344 10341 10336 10333 10331 10329 10326 10325 10323 10321 10319 10317 10316 10314 10314 10313 10312 10311 10311 10311 10310 10310 10309 10309 10309 10309 10308 10308 10308 10307 10307 10307 10308 10308 10309 10310 10311 10313 10314 10315 10316 10317 10317 10318 10319 10321
10437 10435 10434 10433 10430 10428 10424 10422 10419 10418 10416 10413 10410 10407 10404 10400 10397 10394 10392 10389 10387 10385 10382 10379 10376 10372 10369 10366 10363 10359 10358 10358 10357 10354 10349 10348 10344 10341 10337 10336 10334 10331 10326 10323 10321 10319 10317 10314 10312 10309 10308 10306 10304 10303 10303 10302 10302 10301 10301 10300 10299 10299 10298 10298 10298 10298 10298 10297 10297 10296 10296 10296 10296 10296 10297 10298 10299 10301 10302 10304 10305 10306 10308 10308 10309 10310
10430 10428 10426 10425 10423 10421 10416 10413 10411 10409 10408 10405 10402 10399 10395 10392 10389 10386 10383 10381 10379 10376 10373 10370 10367 10363 10359 10357 10353 10349 10348 10348 10347 10344 10341 10339 10336 10332 10328 10328 10325 10321 10316 10313 10311 10309 10307 10304 10301 10299 10296 10294 10293 10292 10291 10291 10291 10290 10289 10289 10288 10288 10287 10287 10286 10286 10286 10286 10286 10286 10285 10285 10284 10284 10284 10285 10286 10287 10289 10291 10293 10294 10296 10298 10299 10300
10424 10421 10419 10418 10416 10413 10409 10406 10404 10401 10399 10397 10394 10391 10387 10384 10381 10378 10374 10373 10370 10367 10363 10360 10357 10354 10350 10348 10343 10340 10338 10338 10338 10335 10333 10330 10327 10323 10319 10319 10317 10313 10308 10304 10301 10300 10298 10294 10291 10288 10285 10283 10281 10280 10279 10279 10279 10278 10278 10278 10277 10276 10276 10275 10274 10274 10274 10274 10274 10274 10274 10273 10273 10273 10273 10273 10273 10274 10275 10276 10279 10281 10283 10285 10288 10289
10418 10414 10412 10410 10408 10406 10403 10399 10396 10394 10391 10389 10386 10383 10379 10377 10374 10371 10367 10364 10361 10358 10354 10351 10348 10344 10341 10338 10334 10331 10328 10328 10328 10327 10324 10322 10318 10314 10311 10309 10308 10304 10298 10294 10293 10291 10288 10283 10279 10276 10274 10271 10269 10267 10266 10266 10266 10265 10265 10265 10265 10264 10263 10263 10263 10262 10261 10261 10261 10261 10261 10261 10261 10261 10261 10261 10261 10261 10262 10263 10264 10266 10269 10272 10274 10278
10411 10409 10406 10403 10401 10398 10395 10392 10389 10386 10384 10381 10378 10375 10373 10369 10366 10363 10359 10356 10353 10349 10346 10343 10339 10335 10331 10328 10325 10322 10319 10318 10318 10318 10316 10313 10309 10306 10302 10300 10298 10294 10288 10284 10281 10280 10276 10271 10266 10263 10261 10259 10256 10254 10253 10252 10252 10251 10251 10251 10251 10251 10250 10249 10249 10249 10248 10248 10248 10248 10248 10248 10248 10248 10248 10248 10248 10248 10249 10249 10251 10252 10254 10257 10261 10264
10404 10402 10399 10396 10393 10391 10388 10385 10382 10379 10376 10374 10371 10368 10364 10361 10358 10355 10352 10348 10345 10342 10339 10335 10331 10327 10323 10319 10316 10313 10309 10308 10309 10309 10307 10304 10300 10296 10292 10289 10288 10284 10278 10272 10269 10268 10265 10259 10254 10249 10248 10246 10243 10241 10239 10238 10238 10237 10236 10236 10236 10236 10236 10236 10235 10235 10234 10234 10234 10234 10234 10234 10235 10235 10236 10236 10236 10236 10236 10237 10238 10239 10241 10243 10246 10249
10398 10394 10392 10389 10386 10383 10381 10378 10375 10372 10369 10366 10363 10360 10357 10354 10350 10347 10343 10340 10337 10334 10331 10327 10323 10319 10315 10312 10308 10304 10299 10298 10298 10298 10298 10295 10291 10285 10280 10278 10276 10273 10268 10261 10257 10255 10253 10248 10241 10237 10234 10233 10231 10228 10226 10225 10224 10223 10223 10223 10222 10222 10221 10221 10221 10221 10220 10220 10220 10220 10220 10221 10221 10221 10222 10223 10223 10223 10224 10224 10225 10226 10227 10229 10232 10235
10390 10388 10384 10382 10379 10376 10373 10371 10368 10365 10362 10359 10356 10353 10350 10347 10343 10339 10335 10331 10329 10327 10323 10319 10314 10311 10307 10303 10299 10296 10291 10289 10288 10287 10287 10286 10281 10275 10269 10266 10264 10262 10257 10251 10246 10243 10240 10236 10230 10225 10222 10220 10218 10216 10214 10212 10211 10210 10209 10209 10208 10208 10207 10206 10206 10206 10206 10206 10206 10206 10206 10206 10207 10208 10208 10209 10209 10210 10211 10211 10212 10213 10214 10216 10218 10221
10383 10380 10378 10375 10372 10369 10366 10363 10360 10358 10354 10351 10349 10346 10343 10340 10336 10332 10327 10324 10322 10319 10315 10310 10307 10303 10299 10294 10290 10286 10283 10279 10277 10276 10276 10275 10271 10264 10258 10255 10253 10249 10245 10241 10236 10232 10227 10223 10219 10214 10211 10208 10205 10203 10201 10199 10198 10198 10197 10196 10194 10193 10193 10192 10192 10192 10192 10192 10192 10192 10193 10193 10193 10194 10194 10195 10196 10196 10197 10198 10199 10200 10201 10203 10205 10208
10376 10373 10371 10368 10365 10362 10359 10356 10353 10350 10348 10344 10341 10339 10336 10333 10329 10325 10320 10317 10314 10311 10306 10302 10298 10295 10291 10287 10282 10278 10273 10269 10268 10267 10267 10264 10259 10253 10247 10244 10241 10237 10232 10229 10226 10221 10214 10210 10206 10203 10200 10196 10193 10191 10189 10187 10186 10184 10184 10183 10181 10180 10179 10179 10179 10178 10178 10178 10178 10179 10179 10179 10180 10180 10181 10181 10182 10183 10183 10184 10185 10187 10188 10190 10193 10194
10369 10366 10364 10361 10358 10356 10353 10349 10346 10344 10341 10338 10334 10332 10329 10326 10322 10318 10314 10309 10306 10303 10298 10293 10289 10286 10283 10279 10274 10269 10264 10259 10258 10258 10258 10254 10247 10240 10234 10232 10228 10223 10219 10218 10215 10209 10203 10197 10194 10191 10189 10185 10181 10178 10176 10175 10173 10172 10171 10169 10168 10167 10166 10166 10166 10166 10166 10165 10165 10166 10166 10166 10166 10167 10168 10168 10168 10169 10170 10171 10172 10174 10176 10178 10179 10181
10362 10359 10357 10354 10351 10349 10346 10343 10340 10337 10334 10331 10328 10324 10321 10318 10314 10310 10306 10302 10298 10294 10290 10286 10281 10278 10274 10271 10266 10261 10254 10249 10247 10247 10246 10243 10236 10228 10223 10219 10215 10210 10206 10205 10203 10199 10192 10185 10181 10178 10176 10174 10170 10167 10164 10163 10161 10160 10159 10157 10156 10154 10154 10154 10153 10153 10153 10153 10153 10153 10153 10153 10154 10154 10154 10155 10156 10156 10157 10158 10159 10161 10163 10164 10166 10168
10354 10352 10349 10347 10344 10341 10339 10336 10333 10330 10327 10324 10320 10316 10313 10309 10306 10301 10298 10294 10290 10286 10282 10278 10273 10269 10265 10262 10258 10253 10246 10241 10237 10236 10234 10231 10224 10217 10211 10208 10203 10198 10193 10191 10190 10187 10182 10176 10170 10166 10164 10161 10159 10156 10153 10151 10150 10148 10147 10146 10144 10143 10142 10142 10141 10141 10141 10141 10140 10140 10140 10141 10141 10141 10142 10143 10143 10143 10144 10145 10147 10148 10150 10152 10154 10156
10347 10344 10342 10339 10337 10334 10331 10329 10326 10323 10319 10315 10311 10308 10304 10300 10296 10293 10289 10286 10282 10278 10274 10269 10265 10260 10256 10252 10248 10243 10238 10233 10228 10225 10222 10218 10211 10205 10199 10195 10191 10186 10182 10179 10176 10174 10171 10166 10161 10156 10153 10149 10147 10144 10142 10140 10138 10137 10136 10134 10133 10131 10130 10130 10129 10129 10129 10129 10128 10128 10128 10128 10129 10129 10129 10130 10131 10131 10132 10133 10134 10136 10138 10140 10142 10144
10339 10337 10334 10332 10329 10326 10324 10321 10318 10314 10311 10307 10303 10299 10296 10292 10288 10284 10280 10277 10273 10269 10265 10261 10256 10251 10246 10241 10237 10232 10226 10222 10218 10214 10210 10205 10199 10193 10188 10183 10179 10175 10171 10168 10164 10161 10159 10156 10152 10148 10143 10139 10136 10133 10131 10129 10127 10126 10124 10123 10121 10120 10119 10119 10118 10118 10117 10117 10117 10116 10116 10117 10117 10118 10118 10118 10119 10119 10120 10121 10122 10124 10126 10128 10130 10132
10332 10329 10327 10324 10322 10319 10316 10313 10310 10306 10303 10299 10295 10291 10288 10284 10279 10276 10271 10268 10263 10259 10255 10251 10246 10242 10237 10232 10226 10221 10214 10209 10206 10202 10198 10193 10188 10183 10177 10172 10168 10164 10161 10157 10153 10150 10147 10144 10141 10138 10134 10130 10126 10123 10121 10119 10117 10115 10113 10112 10111 10109 10108 10108 10107 10106 10106 10106 10106 10106 10106 10106 10106 10106 10107 10107 10107 10108 10108 10109 10110 10111 10113 10115 10118 10120
10325 10322 10319 10317 10314 10311 10308 10305 10302 10299 10295 10291 10288 10284 10279 10276 10271 10267 10263 10258 10254 10249 10245 10240 10236 10231 10227 10223 10217 10211 10204 10199 10194 10190 10186 10181 10177 10172 10166 10161 10158 10154 10151 10147 10143 10139 10137 10133 10130 10127 10124 10121 10117 10113 10111 10109 10107 10105 10103 10101 10100 10099 10098 10096 10096 10096 10095 10095 10095 10095 10095 10095 10096 10096 10096 10096 10096 10096 10097 10098 10098 10099 10101 10103 10105 10108
10318 10316 10313 10310 10308 10304 10301 10297 10294 10291 10287 10283 10279 10275 10271 10267 10263 10258 10253 10249 10244 10239 10234 10229 10224 10220 10216 10211 10207 10201 10196 10189 10184 10179 10174 10171 10166 10161 10156 10151 10147 10144 10141 10138 10133 10129 10126 10123 10120 10116 10114 10111 10108 10104 10101 10099 10097 10095 10093 10092 10090 10089 10087 10086 10086 10086 10085 10084 10084 10084 10084 10084 10084 10085 10085 10085 10085 10086 10086 10086 10087 10088 10089 10091 10093 10096
10312 10309 10306 10304 10301 10298 10294 10290 10286 10283 10279 10275 10271 10267 10263 10258 10254 10249 10244 10239 10234 10229 10223 10218 10213 10208 10204 10200 10196 10191 10186 10180 10174 10169 10165 10160 10156 10152 10147 10142 10138 10134 10131 10128 10124 10120 10117 10114 10110 10107 10104 10101 10099 10096 10093 10090 10088 10086 10084 10083 10081 10079 10077 10076 10076 10076 10075 10075 10074 10074 10074 10074 10074 10074 10075 10075 10075 10076 10076 10076 10077 10078 10079 10081 10083 10085
10306 10303 10300 10297 10294 10291 10286 10283 10278 10274 10271 10267 10263 10258 10254 10249 10244 10239 10234 10229 10224 10218 10213 10208 10203 10198 10193 10189 10185 10181 10176 10171 10166 10160 10156 10151 10147 10143 10138 10133 10129 10124 10121 10118 10115 10111 10108 10104 10101 10098 10095 10093 10089 10087 10084 10082 10079 10078 10076 10073 10071 10069 10068 10068 10067 10066 10066 10066 10065 10064 10064 10064 10064 10065 10065 10066 10066 10066 10066 10066 10068 10068 10069 10071 10073 10074
10300 10298 10294 10291 10288 10284 10280 10276 10271 10267 10263 10259 10254 10249 10245 10239 10234 10229 10223 10218 10213 10208 10203 10198 10193 10188 10184 10180 10176 10171 10166 10161 10156 10151 10147 10142 10138 10133 10129 10124 10120 10116 10113 10109 10106 10103 10099 10096 10093 10090 10088 10084 10081 10078 10076 10073 10071 10069 10068 10065 10063 10061 10059 10059 10058 10058 10058 10057 10056 10056 10055 10055 10056 10056 10056 10056 10056 10056 10057 10057 10058 10059 10060 10061 10063 10064
10294 10291 10288 10284 10281 10277 10273 10269 10264 10260 10256 10251 10246 10241 10236 10230 10224 10219 10213 10208 10203 10198 10193 10188 10183 10179 10174 10171 10167 10163 10158 10153 10148 10143 10138 10133 10129 10124 10120 10116 10112 10108 10104 10100 10096 10093 10091 10088 10084 10082 10079 10077 10074 10071 10068 10065 10063 10061 10059 10057 10055 10053 10052 10051 10049 10049 10049 10049 10048 10047 10047 10047 10047 10047 10046 10047 10047 10048 10048 10048 10049 10050 10051 10052 10053 10055
10288 10285 10281 10278 10274 10270 10266 10262 10258 10253 10248 10243 10238 10233 10227 10221 10216 10209 10204 10198 10193 10188 10183 10179 10174 10169 10164 10161 10157 10154 10150 10145 10140 10134 10129 10124 10120 10116 10112 10108 10104 10100 10096 10092 10088 10085 10083 10079 10077 10074 10072 10069 10067 10064 10061 10058 10055 10053 10051 10049 10048 10046 10044 10043 10042 10041 10041 10041 10040 10039 10039 10038 10038 10038 10038 10038 10038 10039 10039 10040 10040 10041 10042 10043 10044 10046
10282 10279 10275 10271 10267 10263 10259 10254 10249 10245 10240 10235 10230 10224 10219 10214 10208 10201 10196 10189 10184 10179 10174 10169 10165 10161 10156 10151 10148 10144 10140 10136 10132 10127 10121 10116 10112 10108 10103 10099 10096 10092 10088 10084 10081 10077 10074 10072 10069 10067 10064 10063 10060 10057 10054 10051 10048 10046 10044 10042 10041 10039 10037 10036 10034 10034 10033 10033 10032 10031 10031 10031 10031 10030 10030 10030 10030 10031 10031 10032 10032 10033 10034 10034 10036 10037
10276 10272 10268 10264 10260 10256 10251 10246 10242 10238 10233 10228 10223 10217 10211 10206 10199 10194 10188 10182 10176 10171 10166 10162 10157 10153 10148 10144 10139 10135 10131 10128 10123 10119 10114 10109 10104 10100 10096 10091 10088 10084 10081 10077 10074 10070 10067 10064 10062 10060 10058 10056 10053 10050 10047 10044 10041 10039 10036 10035 10034 10032 10030 10029 10028 10027 10026 10026 10025 10024 10024 10023 10023 10023 10023 10023 10023 10023 10024 10024 10024 10025 10026 10026 10028 10029
10269 10265 10261 10257 10253 10248 10244 10239 10234 10229 10225 10220 10214 10209 10203 10198 10191 10186 10180 10174 10169 10164 10159 10154 10149 10145 10140 10136 10132 10127 10123 10119 10115 10111 10107 10102 10098 10093 10088 10084 10080 10076 10073 10069 10067 10064 10061 10058 10055 10053 10051 10049 10046 10043 10041 10038 10035 10033 10030 10028 10026 10025 10024 10023 10021 10020 10019 10019 10018 10018 10017 10016 10016 10016 10015 10015 10015 10016 10016 10017 10018 10018 10018 10019 10020 10021
10263 10258 10254 10249 10246 10241 10236 10232 10227 10222 10217 10212 10207 10201 10196 10189 10184 10178 10173 10168 10162 10157 10151 10147 10143 10138 10133 10129 10124 10119 10114 10111 10107 10103 10099 10095 10091 10086 10082 10078 10074 10070 10066 10063 10060 10057 10054 10051 10049 10047 10044 10043 10040 10037 10034 10032 10029 10027 10024 10022 10020 10018 10017 10016 10015 10014 10013 10013 10011 10011 10010 10009 10009 10009 10009 10008 10008 10009 10009 10010 10010 10011 10011 10012 10013 10013
10256 10251 10247 10243 10239 10234 10229 10225 10220 10215 10209 10204 10199 10193 10188 10182 10176 10171 10165 10160 10155 10150 10144 10139 10135 10131 10126 10122 10118 10113 10108 10103 10098 10095 10091 10088 10084 10080 10076 10072 10068 10064 10061 10057 10054 10051 10048 10046 10043 10041 10039 10037 10034 10031 10029 10026 10024 10021 10018 10016 10013 10012 10011 10009 10009 10008 10008 10006 10005 10004 10004 10003 10003 10003 10003 10003 10002 10002 10003 10003 10004 10004 10004 10005 10006 10006
10249 10245 10241 10236 10232 10227 10223 10218 10213 10208 10202 10196 10191 10185 10180 10174 10169 10164 10158 10153 10148 10143 10138 10133 10128 10124 10119 10116 10111 10106 10101 10096 10091 10088 10084 10081 10077 10074 10070 10066 10063 10059 10055 10052 10049 10046 10043 10039 10038 10036 10034 10032 10029 10026 10024 10021 10019 10016 10013 10010 10008 10006 10004 10004 10003 10003 10002 10001 9999 9998 9998 9998 9997 9997 9997 9996 9996 9996 9996 9997 9998 9998 9998 9999 9999 9999
10243 10239 10234 10229 10225 10221 10216 10211 10206 10200 10194 10189 10183 10178 10172 10167 10162 10157 10152 10146 10141 10136 10131 10126 10121 10116 10113 10108 10104 10100 10095 10091 10086 10081 10078 10074 10071 10067 10064 10060 10057 10053 10050 10047 10044 10041 10038 10034 10032 10030 10029 10027 10024 10022 10019 10017 10014 10011 10008 10005 10003 10001 9999 9998 9998 9997 9996 9995 9994 9993 9993 9992 9991 9991 9991 9991 9990 9990 9990 9991 9991 9992 9993 9993 9993 9993
10238 10233 10228 10224 10219 10214 10209 10204 10199 10193 10188 10182 10176 10171 10165 10159 10155 10150 10146 10141 10136 10130 10125 10120 10115 10110 10106 10101 10098 10094 10089 10084 10080 10076 10071 10068 10064 10061 10058 10054 10051 10048 10044 10041 10038 10036 10033 10029 10027 10025 10024 10022 10020 10018 10015 10013 10010 10007 10004 10001 9998 9997 9995 9994 9993 9992 9991 9990 9989 9988 9987 9987 9986 9986 9986 9985 9984 9984 9984 9985 9986 9986 9987 9987 9987 9987
10231 10226 10222 10217 10213 10207 10202 10197 10192 10186 10181 10175 10169 10164 10158 10153 10148 10144 10139 10134 10129 10124 10119 10114 10109 10105 10100 10096 10091 10088 10083 10079 10074 10070 10066 10063 10059 10056 10052 10049 10046 10043 10039 10036 10033 10030 10028 10024 10022 10019 10018 10018 10016 10014 10011 10008 10006 10003 9999 9996 9994 9993 9991 9990 9989 9988 9987 9986 9984 9983 9983 9982 9981 9981 9980 9979 9979 9979 9979 9979 9980 9981 9981 9981 9981 9981